Fremont, MI

8:05 PM EST on November 15, 2019 (GMT -0500)
Fremont

Weather History for KFFX - September, 2019

Change the Weather History Date:

Thursday, September 12, 2019

  Actual Average (WUND) Record (WUND)
Temperature  
Mean Temperature 64 °F -  
Max Temperature 68 °F - - (-1)
Min Temperature 59 °F - - (-1)
Degree Days  
Heating Degree Days 2    
Growing Degree Days 14 (Base 50)    
Moisture  
Dew Point 59 °F    
Average Humidity 88    
Maximum Humidity 96    
Minimum Humidity 69    
Precipitation  
Precipitation 0.00 in - - ()
Sea Level Pressure  
Sea Level Pressure 30.15 in    
Wind  
Wind Speed 8 mph ()    
Max Wind Speed 15 mph    
Max Gust Speed 22 mph    
Visibility 9.4 miles    
Events Rain    
Averages and records for this station are not official NWS values.
T = Trace of Precipitation, MM = Missing Value Source: Averaged Metar Reports

Daily Weather History Graph

Daily Weather History Graph

Search for Another Location

Airport or City:

Astronomy

Sep. 12, 2019 Rise Set
Actual Time 7:19 AM EDT 7:59 PM EDT
Civil Twilight 6:50 AM EDT 8:28 PM EDT
Nautical Twilight 6:16 AM EDT 9:02 PM EDT
Astronomical Twilight 5:41 AM EDT 9:38 PM EDT
Moon 7:47 PM EDT (9/12) 5:34 AM EDT (9/12)
Length of Visible Light 13h 37m
Length of Day
12h 40m
Waxing Gibbous, 98% of the Moon is Illuminated
Sep 12
Waxing Gibbous
Sep 14
Full
Sep 21
Last Quarter
Sep 28
New
Oct 5
First Quarter

Hourly Weather History & Observations

Time (EDT) Temp. Dew Point Humidity Pressure Visibility Wind Dir Wind Speed Gust Speed Precip Events Conditions
12:16 AM 68.0 °F 66.6 °F 95% 30.06 in 10.0 mi Calm Calm - N/A   Overcast
12:35 AM 68.0 °F 66.6 °F 95% 30.06 in 10.0 mi Calm Calm - N/A   Overcast
12:55 AM 68.2 °F 66.6 °F 95% 30.07 in 7.0 mi Calm Calm - N/A   Overcast
1:19 AM 68.0 °F 66.4 °F 95% 30.06 in 10.0 mi Calm Calm - N/A   Overcast
1:37 AM 68.0 °F 66.6 °F 95% 30.05 in 10.0 mi Calm Calm - N/A   Overcast
1:55 AM 67.6 °F 66.4 °F 96% 30.06 in 7.0 mi ENE 11.5 mph - N/A   Overcast
1:56 AM 67.5 °F 66.2 °F 96% 30.06 in 5.0 mi ENE 11.5 mph - N/A   Overcast
2:15 AM 65.3 °F 63.9 °F 95% 30.06 in 2.5 mi ENE 12.7 mph 17.3 mph N/A   Overcast
2:16 AM 65.3 °F 63.9 °F 95% 30.06 in 2.5 mi ENE 13.8 mph 17.3 mph N/A   Overcast
2:35 AM 64.0 °F 62.6 °F 95% 30.07 in 4.0 mi East 10.4 mph - N/A   Overcast
2:58 AM 63.7 °F 62.6 °F 96% 30.07 in 7.0 mi East 9.2 mph - N/A   Overcast
3:16 AM 63.5 °F 62.1 °F 95% 30.08 in 4.0 mi ENE 11.5 mph - N/A   Overcast
3:35 AM 63.1 °F 61.9 °F 96% 30.09 in 5.0 mi East 8.1 mph - N/A   Overcast
3:55 AM 63.0 °F 61.7 °F 96% 30.09 in 10.0 mi East 10.4 mph 17.3 mph N/A   Overcast
3:56 AM 63.0 °F 61.7 °F 96% 30.09 in 10.0 mi East 9.2 mph 17.3 mph N/A   Overcast
4:19 AM 62.6 °F 61.2 °F 95% 30.10 in 10.0 mi East 8.1 mph 16.1 mph N/A   Overcast
4:37 AM 62.2 °F 60.8 °F 95% 30.10 in 7.0 mi East 9.2 mph - N/A   Overcast
4:55 AM 62.2 °F 60.8 °F 95% 30.11 in 10.0 mi East 11.5 mph - N/A   Overcast
5:15 AM 61.7 °F 59.9 °F 94% 30.13 in 10.0 mi East 11.5 mph - N/A   Overcast
5:35 AM 61.2 °F 59.5 °F 94% 30.14 in 10.0 mi East 11.5 mph - N/A   Overcast
5:40 AM 61.2 °F 59.5 °F 94% 30.14 in 10.0 mi East 9.2 mph - N/A   Overcast
5:58 AM 61.0 °F 59.0 °F 93% 30.15 in 10.0 mi East 10.4 mph - N/A   Overcast
6:16 AM 60.8 °F 58.6 °F 93% 30.15 in 10.0 mi East 13.8 mph 18.4 mph N/A   Overcast
6:35 AM 60.8 °F 59.0 °F 94% 30.15 in 10.0 mi East 11.5 mph 17.3 mph N/A   Overcast
6:36 AM 60.8 °F 59.0 °F 94% 30.15 in 10.0 mi East 10.4 mph 17.3 mph N/A   Overcast
6:55 AM 60.6 °F 58.3 °F 92% 30.17 in 10.0 mi East 5.8 mph - N/A   Overcast
7:18 AM 60.3 °F 58.1 °F 93% 30.18 in 10.0 mi East 10.4 mph - N/A   Overcast
7:37 AM 59.9 °F 57.7 °F 93% 30.16 in 7.0 mi ENE 15.0 mph 21.9 mph N/A Rain Light Rain
7:55 AM 59.9 °F 57.6 °F 92% 30.16 in 10.0 mi East 13.8 mph 21.9 mph N/A   Overcast
8:15 AM 59.7 °F 57.6 °F 93% 30.18 in 10.0 mi East 9.2 mph - N/A   Overcast
8:35 AM 59.5 °F 57.2 °F 92% 30.18 in 10.0 mi East 9.2 mph 18.4 mph N/A   Overcast
8:40 AM 59.5 °F 57.2 °F 92% 30.18 in 10.0 mi East 8.1 mph 17.3 mph N/A   Overcast
8:58 AM 59.5 °F 57.4 °F 93% 30.18 in 10.0 mi East 9.2 mph - N/A   Overcast
9:15 AM 59.5 °F 57.2 °F 92% 30.19 in 10.0 mi ESE 6.9 mph - N/A   Overcast
9:35 AM 59.5 °F 56.7 °F 90% 30.19 in 10.0 mi East 8.1 mph - N/A   Overcast
9:55 AM 60.3 °F 57.4 °F 90% 30.20 in 10.0 mi East 9.2 mph - N/A   Overcast
10:37 AM 60.8 °F 56.7 °F 86% 30.20 in 10.0 mi East 11.5 mph 18.4 mph N/A   Overcast
10:55 AM 61.2 °F 56.7 °F 85% 30.20 in 10.0 mi East 11.5 mph 18.4 mph N/A   Overcast
10:56 AM 61.2 °F 56.7 °F 85% 30.20 in 10.0 mi East 12.7 mph 19.6 mph N/A   Overcast
11:15 AM 61.7 °F 56.8 °F 84% 30.19 in 10.0 mi ESE 10.4 mph 18.4 mph N/A   Overcast
11:35 AM 61.5 °F 56.8 °F 85% 30.20 in 10.0 mi East 13.8 mph 18.4 mph N/A   Overcast
11:58 AM 61.2 °F 57.0 °F 86% 30.20 in 10.0 mi East 13.8 mph - N/A   Overcast
12:16 PM 61.2 °F 56.8 °F 86% 30.20 in 10.0 mi East 12.7 mph 17.3 mph N/A   Overcast
12:35 PM 61.5 °F 57.2 °F 86% 30.20 in 10.0 mi East 10.4 mph 16.1 mph N/A   Overcast
12:36 PM 61.5 °F 57.2 °F 86% 30.20 in 10.0 mi East 11.5 mph 16.1 mph N/A   Overcast
12:55 PM 61.7 °F 57.4 °F 86% 30.21 in 10.0 mi ESE 9.2 mph - N/A   Overcast
12:56 PM 61.7 °F 57.4 °F 86% 30.21 in 10.0 mi ESE 9.2 mph - N/A   Overcast
1:19 PM 62.2 °F 57.4 °F 84% 30.21 in 10.0 mi East 10.4 mph - N/A   Overcast
1:37 PM 62.6 °F 57.4 °F 83% 30.20 in 10.0 mi East 10.4 mph 17.3 mph N/A   Overcast
1:56 PM 63.0 °F 56.8 °F 80% 30.19 in 10.0 mi ESE 10.4 mph 19.6 mph N/A   Overcast
2:15 PM 64.2 °F 56.1 °F 75% 30.19 in 10.0 mi East 9.2 mph - N/A   Overcast
2:16 PM 64.0 °F 56.1 °F 75% 30.19 in 10.0 mi East 6.9 mph - N/A   Overcast
2:35 PM 64.8 °F 55.9 °F 73% 30.20 in 10.0 mi ESE 9.2 mph 17.3 mph N/A   Overcast
2:40 PM 64.8 °F 55.6 °F 72% 30.19 in 10.0 mi East 6.9 mph - N/A   Overcast
2:58 PM 64.8 °F 56.1 °F 74% 30.19 in 10.0 mi East 8.1 mph - N/A   Overcast
3:16 PM 65.3 °F 55.2 °F 70% 30.19 in 10.0 mi East 9.2 mph - N/A   Overcast
3:55 PM 65.8 °F 55.2 °F 69% 30.18 in 10.0 mi East 10.4 mph 16.1 mph N/A   Overcast
4:19 PM 65.7 °F 56.3 °F 72% 30.18 in 10.0 mi East 6.9 mph - N/A   Overcast
4:37 PM 65.5 °F 57.0 °F 74% 30.17 in 10.0 mi East 8.1 mph 16.1 mph N/A   Overcast
4:55 PM 65.3 °F 57.4 °F 76% 30.17 in 10.0 mi East 11.5 mph - N/A   Overcast
5:15 PM 65.1 °F 58.1 °F 78% 30.17 in 10.0 mi East 10.4 mph 17.3 mph N/A   Overcast
5:16 PM 65.3 °F 58.1 °F 77% 30.17 in 10.0 mi East 10.4 mph 17.3 mph N/A   Overcast
5:35 PM 65.3 °F 58.8 °F 80% 30.17 in 10.0 mi ESE 6.9 mph - N/A   Overcast
5:58 PM 64.8 °F 59.2 °F 82% 30.16 in 10.0 mi East 5.8 mph - N/A   Overcast
6:16 PM 64.4 °F 59.0 °F 83% 30.17 in 10.0 mi East 10.4 mph 17.3 mph N/A   Overcast
6:35 PM 64.0 °F 59.0 °F 84% 30.16 in 10.0 mi ESE 11.5 mph 17.3 mph N/A   Overcast
6:55 PM 63.9 °F 59.4 °F 85% 30.15 in 10.0 mi East 6.9 mph 17.3 mph N/A   Overcast
6:56 PM 63.9 °F 59.4 °F 85% 30.15 in 10.0 mi East 8.1 mph 17.3 mph N/A   Overcast
7:19 PM 63.5 °F 59.4 °F 86% 30.15 in 10.0 mi ESE 8.1 mph 16.1 mph N/A   Overcast
7:37 PM 63.5 °F 59.4 °F 86% 30.16 in 10.0 mi East 9.2 mph 19.6 mph N/A   Overcast
7:56 PM 63.1 °F 59.4 °F 87% 30.17 in 10.0 mi East 10.4 mph - N/A   Overcast
8:15 PM 63.0 °F 59.5 °F 89% 30.17 in 10.0 mi East 10.4 mph - N/A   Overcast
8:35 PM 63.0 °F 59.9 °F 90% 30.17 in 10.0 mi ESE 5.8 mph 19.6 mph N/A   Overcast
8:58 PM 62.6 °F 59.7 °F 90% 30.15 in 10.0 mi East 11.5 mph 19.6 mph N/A   Overcast
9:16 PM 62.6 °F 59.7 °F 90% 30.15 in 10.0 mi East 11.5 mph 18.4 mph N/A   Overcast
9:35 PM 62.6 °F 59.7 °F 90% 30.15 in 10.0 mi East 12.7 mph 16.1 mph N/A   Overcast
9:55 PM 62.1 °F 59.4 °F 91% 30.16 in 10.0 mi East 11.5 mph 18.4 mph N/A   Overcast
10:19 PM 61.9 °F 59.4 °F 91% 30.15 in 10.0 mi East 11.5 mph 16.1 mph N/A   Overcast
10:37 PM 61.9 °F 59.4 °F 91% 30.14 in 10.0 mi East 9.2 mph 20.7 mph N/A   Overcast
10:55 PM 61.9 °F 59.4 °F 91% 30.14 in 10.0 mi ESE 10.4 mph 17.3 mph N/A   Overcast
10:56 PM 61.9 °F 59.4 °F 91% 30.14 in 10.0 mi ESE 11.5 mph 17.3 mph N/A   Overcast
11:15 PM 61.9 °F 59.5 °F 92% 30.14 in 10.0 mi ESE 10.4 mph - N/A   Overcast
11:16 PM 61.9 °F 59.5 °F 92% 30.14 in 10.0 mi ESE 10.4 mph 17.3 mph N/A   Overcast
11:35 PM 61.9 °F 59.7 °F 93% 30.12 in 10.0 mi East 11.5 mph 17.3 mph N/A   Overcast
11:40 PM 62.1 °F 59.9 °F 93% 30.13 in 10.0 mi ESE 12.7 mph 18.4 mph N/A   Overcast
11:58 PM 62.6 °F 60.3 °F 92% 30.12 in 10.0 mi ESE 8.1 mph 17.3 mph N/A   Overcast